IRIDIUM 33 DEB, 35620

Orbit data source: Space-Track

IRIDIUM 33 DEB, 35620 is space debris in LEO originally from a launch on Sun, 14 Sep 1997 UTC launched from the Tyuratam Missile And Space Complex (TTMTR). The debris from Iridium 33, an American commercial communications satellite, has been tracked extensively since its accidental collision with the defunct Russian satellite Cosmos 2251 in 2009. This event, occurring at high speed in low Earth orbit (LEO), generated thousands of pieces of space debris, significantly increasing the risk of further collisions. The Iridium 33 debris cloud has impacted space traffic management and orbital debris mitigation strategies, making it a subject of ongoing study in space situational awareness.

Loading next visibility...
Identifier
35620, 1997-051QS
Orbit
LEO
Country
Flag of USUS
Related business
Manufacturer
Unknown
Mission
Spacecraft
Bus & Motor
Unknown
Mass
Unknown
Launch date (UTC)
1997-09-14 (28 years ago)
Launch vehicle
Unknown
Launch site
Tyuratam Missile And Space Complex (TTMTR)
Object type
Payload
Rocket body
Debris
Shape & HBR
Unknown shape, 0.1 m
Radar Cross Section
Small (<0.1 m²)

Expand to show TLE details & history
Last TLE update: 4 days ago

TLE from 4 days ago
0 IRIDIUM 33 DEB
1 35620U 97051QS  26059.76607762  .00007934  00000-0  22480-2 0  9992
2 35620  86.3903 184.5043 0131255   0.7677 359.3698 14.40458510610884
Epoch: 2026-02-28T18:23Z
TLE epoch observation values (Epoch: 2026-02-28T18:23:09.106Z)
Latitude
-0.00002°
Longitude
110.13287°
Altitude
666.378 km
Speed
7.573 km/s
True Right ascension
12h 18m 01s
True Declination
0° 00' 00"
Sunlit
Object was in full shadow at epoch
Visualization orbit readout
Latitude
Unknown
Longitude
Unknown
Altitude
Unknown
Speed
Unknown
Apparent Right ascension
Unknown
Apparent Declination
Unknown
Sunlit
N/A
Visualization observer readout
Local Sidereal Time
03:44:31
Azimuth
Unknown
Elevation
Unknown
Doppler factor
Unknown
Orbital elements
Apogee altitude
847.551 km
Perigee altitude
660.327 km
Semi-major axis
7,132.076 km
Eccentricity
0.01313
Inclination
86.3903°
RAAN
184.5043°
Arg. of periapsis
0.7677°
True anomaly
359.35298°
Mean anomaly
359.3698°
Eccentric anomaly
359.36142°
Mean motion
3.60346 °/min
Orbital period
99.9 mins
BSTAR
0.002248
Loading maneuver chart data...
Computing Atmospheric mass density...
Loading historical data...
Loading historical data...
Loading historical data...
Loading historical data...
Loading historical data...
Loading historical data...
Loading historical data...

Documentation

Showing up to 5 results
|